Theta_e
309 309 309 308 308 308 307 308 308 308 307 308 308 307 306 305 306 305 305 306 307 306
309 310 309 309 309 308 308 310 309 307 306 307 307 306 305 304 304 305 304 305 307 306
309 310 310 310 310 308 308 308 308 307 306 306 306 306 305 305 305 305 306 306 305 305
309 310 311 310 309 309 308 308 307 307 306 306 305 305 305 305 306 306 307 307 305 305
309 309 310 310 310 309 309 309 308 306 306 306 305 305 305 304 305 305 305 306 306 305
308 308 308 310 311 310 309 309 308 306 306 306 305 305 306 305 304 304 304 304 304 306
307 308 308 309 311 311 310 309 307 307 306 306 306 306 306 306 305 305 304 304 305 306
308 308 309 310 311 311 311 310 309 307 307 306 306 306 305 306 306 305 305 305 304 306
308 309 309 310 311 311 310 310 309 308 307 306 305 304 305 306 305 306 305 305 304 305
310 309 310 310 310 310 309 310 310 309 308 307 307 302 302 304 306 306 306 305 305 305
310 309 310 309 309 308 309 309 310 310 309 308 307 303 301 303 306 306 307 307 307 306
309 309 309 308 309 309 308 308 310 311 310 309 310 304 302 303 306 305 306 307 308 308
309 309 309 309 309 309 309 309 310 310 311 309 310 304 301 303 306 304 305 306 306 304
310 309 309 309 310 309 308 309 310 311 311 310 310 310 301 300 307 305 305 303 304 306
Wind_Speed
3 2 2 2 3 3 3 3 5 5 5 6 6 6 6 4 5 6 6 8 7 4
4 3 3 4 3 2 3 3 4 4 5 5 6 7 6 5 6 6 7 7 7 5
4 3 3 2 3 3 4 4 4 4 5 5 6 7 6 5 6 7 6 5 8 7
3 4 3 2 3 3 3 3 3 3 4 5 5 6 6 6 6 6 6 7 8 9
3 3 4 4 3 2 3 2 2 2 3 3 4 5 5 6 5 6 7 8 8 9
4 4 4 5 4 3 2 2 2 2 3 4 4 4 4 4 4 5 5 5 6 6
5 5 4 5 4 3 2 2 1 2 3 4 5 4 5 4 5 5 5 5 5 6
6 5 5 4 4 3 3 3 3 3 4 4 4 3 5 5 4 5 6 6 6 5
5 4 5 5 4 3 4 4 3 4 5 5 4 7 8 6 4 5 5 5 6 5
4 5 5 4 5 5 5 4 5 5 5 6 6 8 9 7 4 4 5 5 4 5
4 5 4 5 6 6 3 4 5 6 6 6 6 9 9 6 4 4 5 5 6 6
5 5 5 6 7 4 4 4 6 6 7 6 8 9 10 5 4 5 6 5 5 7
6 5 6 5 6 3 4 6 4 7 6 8 9 8 10 6 4 5 5 6 6 8
6 6 6 5 3 4 6 6 5 5 6 7 6 9 9 9 6 6 5 6 6 5
Wind_Direction
317 298 303 314 318 323 317 310 325 335 346 348 354 358 6 8 11 10 14 0 4 349
317 305 284 302 307 314 314 317 335 348 349 348 355 7 5 11 15 13 18 4 357 2
312 302 279 292 306 311 312 332 347 357 351 358 2 2 3 7 7 21 16 358 5 10
305 301 278 284 294 294 299 327 353 353 359 3 4 3 8 15 14 16 15 12 10 9
274 283 281 283 289 302 318 328 339 348 358 353 356 1 14 21 16 12 2 359 4 6
262 277 282 277 281 283 309 339 349 336 342 336 341 351 1 1 5 359 355 355 3 354
250 257 270 277 271 284 287 302 295 279 297 313 321 333 339 339 341 346 344 335 337 340
244 256 274 281 277 280 260 261 255 274 278 292 298 300 321 321 319 320 333 337 336 333
229 245 262 273 279 281 271 260 256 257 265 279 277 284 304 328 321 305 305 322 328 327
218 240 260 282 288 281 267 249 259 258 252 263 269 267 286 311 311 314 302 288 295 317
242 255 266 273 276 273 282 279 275 269 260 260 266 266 269 280 298 301 300 284 279 282
237 256 270 274 272 280 276 268 264 255 263 258 270 250 263 252 271 287 289 293 286 279
241 237 259 265 277 253 246 268 273 282 258 257 268 254 245 237 247 266 274 285 278 268
252 241 241 261 247 275 280 283 288 283 284 270 258 281 242 235 243 245 263 272 288 288